Regional Weather Roundup
Issued by NWS

Home | Current Version | Previous Version | Text Only | Print | Product List | Glossary Off
Versions: 1 2 3 4 5 6 7 8 9 10 11 12 13 14 15 16 17 18 19 20 21 22 23 24 25 26 27 28 29 30 31 32 33 34 35 36 37 38 39 40 41 42 43 44 45 46 47 48 49 50

000
ASUS43 KBIS 171759
RWRND

NORTH DAKOTA REGIONAL WEATHER ROUNDUP
NATIONAL WEATHER SERVICE BISMARCK ND
1200 PM CST WED DEC 17 2014

NOTE: "FAIR" INDICATES FEW OR NO CLOUDS BELOW 12,000 FEET WITH NO
SIGNIFICANT WEATHER AND/OR OBSTRUCTIONS TO VISIBILITY.


NDZ001>003-009>011-017-171900-
NORTHWEST NORTH DAKOTA

CITY           SKY/WX    TMP DP  RH WIND       PRES   REMARKS
WILLISTON      CLOUDY    19  12  74 SE13G18   30.15F WCI   6
6HR MIN TEMP:  17; 6HR MAX TEMP:  19; 6HR PCP: TRACE;

MINOT          FAIR      15   9  76 S12       30.23F WCI   2
MINOT AFB      CLOUDY    14  12  92 S12       30.24F WCI   0
$$

NDZ018>021-031>035-040>046-171900-
SOUTHWEST NORTH DAKOTA

CITY           SKY/WX    TMP DP  RH WIND       PRES   REMARKS
BISMARCK       CLOUDY    15   9  76 S7        30.27F WCI   5
6HR MIN TEMP:  13; 6HR MAX TEMP:  15; 6HR PCP: TRACE;

DICKINSON      LGT SNOW  17  12  80 SE16      30.11F WCI   2
GARRISON         N/A     15  11  83 S14       30.21F WCI   0
6HR MIN TEMP:  14; 6HR MAX TEMP:  16;

HETTINGER ARPT CLOUDY    15  13  91 SE13      30.12F WCI   1
$$

NDZ004>008-012>016-024-026-027-054-171900-
NORTHEAST NORTH DAKOTA

CITY           SKY/WX    TMP DP  RH WIND       PRES   REMARKS
GRAND FORKS    FAIR      12   7  80 N3        30.38F
DEVILS LAKE    FAIR      10   1  67 CALM      30.30F
$$

NDZ022-023-025-028>030-036>039-047>053-171900-
SOUTHEAST NORTH DAKOTA

CITY           SKY/WX    TMP DP  RH WIND       PRES   REMARKS
FARGO          FAIR      13   8  81 MISG      30.37F
6HR MIN TEMP:   2; 6HR MAX TEMP:  13;

$$



USA.gov is the U.S. government's official web portal to all federal, state and local government web resources and services.